Printer-friendly version

IAU Minor Planet Center

Minor Planet Center

MPEC 2006-U48 : 2006 UF63

The following Minor Planet Electronic Circular may be linked-to from your own Web pages, but must not otherwise be redistributed electronically.


Read MPEC 2006-U47 Read MPEC 2006-U49


M.P.E.C. 2006-U48                                Issued 2006 Oct. 23, 15:53 UT

     The Minor Planet Electronic Circulars contain information on unusual
         minor planets and routine data on comets.  They are published
   on behalf of Commission 20 of the International Astronomical Union by the
          Minor Planet Center, Smithsonian Astrophysical Observatory,
                          Cambridge, MA 02138, U.S.A.

             Prepared using the Tamkin Foundation Computer Network

                              MPC@CFA.HARVARD.EDU
          URL http://cfa-www.harvard.edu/iau/mpc.html  ISSN 1523-6714

                                   2006 UF63

Observations:
     K06U63F* C2006 10 21.31256 03 16 18.01 -07 05 07.7          19.1 V EU048703
     K06U63F  C2006 10 21.32336 03 16 16.03 -07 04 30.2          19.2 V EU048703
     K06U63F  C2006 10 21.33418 03 16 14.12 -07 03 50.6          19.2 V EU048703
     K06U63F  C2006 10 21.34497 03 16 12.28 -07 03 12.8          18.9 V EU048703
     K06U63F  C2006 10 21.40486 03 16 01.74 -06 59 36.3          19.4 V EU048703
     K06U63F  C2006 10 21.41608 03 15 59.76 -06 58 55.6          19.6 V EU048703
     K06U63F  C2006 10 21.42723 03 15 57.85 -06 58 15.3          19.2 V EU048703
     K06U63F  C2006 10 21.43858 03 15 55.83 -06 57 35.6          19.3 V EU048703
     K06U63F  C2006 10 21.53141 03 15 41.34 -06 51 30.7          19.0 R EU048474
     K06U63F  C2006 10 21.53338 03 15 40.94 -06 51 23.4          19.2 R EU048474
     K06U63F  C2006 10 21.53650 03 15 40.49 -06 51 11.9          19.3 R EU048474
     K06U63F  C2006 10 22.00980 03 14 21.46 -06 23 21.7                 EU048J95
     K06U63F  C2006 10 22.01248 03 14 20.99 -06 23 12.2                 EU048J95
     K06U63F  C2006 10 22.01515 03 14 20.44 -06 23 02.4          19.0 R EU048J95
     K06U63F  C2006 10 22.25510 03 13 40.94 -06 08 31.1          19.4 V EU048G96
     K06U63F  C2006 10 22.26447 03 13 39.28 -06 07 57.7          19.7 V EU048G96
     K06U63F  C2006 10 22.27388 03 13 37.63 -06 07 23.7          19.2 V EU048G96
     K06U63F  C2006 10 22.33523 03 13 26.93 -06 03 43.6          19.6 R EU048651
     K06U63F  C2006 10 22.33745 03 13 26.53 -06 03 35.6          19.6 R EU048651
     K06U63F  C2006 10 22.34078 03 13 25.95 -06 03 23.6          19.5 R EU048651
     K06U63F  C2006 10 22.38815 03 13 17.43 -06 00 31.4          19.8 R EU048448
     K06U63F  C2006 10 22.39976 03 13 15.41 -05 59 49.7          19.4 R EU048448
     K06U63F  C2006 10 22.41091 03 13 13.44 -05 59 09.6          20.1 R EU048448
     K06U63F  C2006 10 22.66505 03 12 30.80 -05 43 22.2          19.2 R EU048474
     K06U63F  C2006 10 22.66632 03 12 30.60 -05 43 17.7          19.0 R EU048474
     K06U63F  C2006 10 22.66748 03 12 30.39 -05 43 13.6          19.2 R EU048474
     K06U63F 5C2006 10 23.33461 03 10 39.51 -05 03 37.5          19.3 R EU048673
     K06U63F 5C2006 10 23.34016 03 10 38.51 -05 03 16.1                 EU048673
     K06U63F  C2006 10 23.34206 03 10 37.98 -05 03 10.4          20.2 R EU048448
     K06U63F 5C2006 10 23.34700 03 10 37.34 -05 02 52.8                 EU048673
     K06U63F 5C2006 10 23.35012 03 10 36.76 -05 02 40.6                 EU048673
     K06U63F  C2006 10 23.35249 03 10 36.00 -05 02 30.5          18.9 R EU048711
     K06U63F  C2006 10 23.35571 03 10 35.54 -05 02 20.6          19.6 R EU048448
     K06U63F  C2006 10 23.35654 03 10 35.28 -05 02 15.3          19.0 R EU048711
     K06U63F  C2006 10 23.36059 03 10 34.60 -05 02 02.4          18.8 R EU048711
     K06U63F  C2006 10 23.36984 03 10 33.05 -05 01 29.8          19.9 R EU048448

Observer details:
448 Desert Moon Observatory.  Observer B. L. Stevens.  0.3-m
    Schmidt-Cassegrain + CCD.
474 Mount John Observatory, Lake Tekapo.  Observer A. C. Gilmore.  1.0-m f/7.7
    reflector + CCD.
651 Grasslands Observatory, Tucson.  Observer J. E. McGaha.  0.62-m f/5.1
    Newtonian reflector + CCD.
673 Table Mountain Observatory, Wrightwood.  Observer J. Young.  0.61-m f/16
    Cassegrain + CCD.
703 Catalina Sky Survey.  Observer A. R. Gibbs.  Measurers E. C. Beshore,
    E. J. Christensen, G. J. Garradd, A. R. Gibbs, A. D. Grauer, R. E. Hill,
    R. A. Kowalski, S. M. Larson, R. H. McNaught.  0.68-m Schmidt + CCD.
711 McDonald Observatory.  Observer J. G. Ries.  0.76-m reflector + CCD
    + prime-focus corrector.
G96 Mt. Lemmon Survey.  Observer R. A. Kowalski.  Measurers E. C. Beshore,
    E. J. Christensen, G. J. Garradd, A. R. Gibbs, A. D. Grauer, R. E. Hill,
    R. A. Kowalski, S. M. Larson, R. H. McNaught.  1.5-m reflector + CCD.
J95 Great Shefford.  Observer P. Birtwhistle.  0.40-m f/6.0 Schmidt-Cassegrain
    + CCD.

Orbital elements:
2006 UF63                                                Earth MOID = 0.3332 AU
Epoch 2006 Sept. 22.0 TT = JDT 2454000.5                MPC
M   7.66039              (2000.0)            P               Q
n   0.29346288     Peri.  295.88141     +0.89874892     +0.32743703
a   2.2426798      Node    46.61418     -0.08471170     +0.78220864
e   0.4747336      Incl.   23.65651     -0.43020264     +0.53003268
P   3.36           H   20.2           G   0.15           U   8
Residuals in seconds of arc
061021 703  1.0+  0.8+    061022 J95  0.6+  0.1+    061022 474  0.0   0.1+
061021 703  0.3-  0.5-    061022 J95  0.7-  0.3+    061022 474  0.1-  0.0
061021 703  0.5-  0.2+    061022 G96  0.1+  0.4+    061023 673  0.0   0.6-
061021 703  0.3+  0.9-    061022 G96  0.3-  0.1+    061023 673  0.4-  0.8+
061021 703  0.2-  0.0     061022 G96  0.4-  0.2+    061023 448  0.6+  1.0-
061021 703  0.4-  0.2+    061022 651  0.8+  1.0-    061023 673  0.2+  0.6-
061021 703  0.2+  0.3+    061022 651  0.7+  1.0-    061023 673  0.3-  0.4+
061021 703  0.4-  0.9-    061022 651  0.8+  1.0-    061023 711  0.5-  0.7+
061021 474  0.6-  0.5-    061022 448  0.5-  0.5+    061023 448  0.1+  0.4-
061021 474  1.4-  0.2-    061022 448  0.2-  0.3+    061023 711  0.6-  1.3+
061021 474  0.0   0.0     061022 448  0.4-  0.1+    061023 711  0.0   0.4-
061022 J95  0.7+  0.2+    061022 474  0.3-  0.2+    061023 448  0.2+  0.6-

Ephemeris:
2006 UF63                a,e,i = 2.24, 0.47, 24                  q = 1.1780
Date    TT    R. A. (2000) Decl.     Delta      r     Elong.  Phase     V
2006 10 22    03 14.38   -06 23.7    0.358    1.322   151.9    20.8    19.6
2006 11 01    02 46.88   +03 24.9    0.384    1.371   167.7     8.9    19.4
2006 11 11    02 23.27   +11 49.0    0.439    1.424   168.8     7.8    19.7
2006 11 21    02 06.47   +18 09.3    0.520    1.480   156.7    15.3    20.5
2006 12 01    01 57.23   +22 41.7    0.622    1.539   145.4    21.4    21.1
2006 12 11    01 54.74   +25 58.4    0.740    1.599   135.5    25.6    21.7

Timothy B. Spahr             (C) Copyright 2006 MPC           M.P.E.C. 2006-U48

Read MPEC 2006-U47 Read MPEC 2006-U49


Our Web policy. Index to the CBAT/MPC/ICQ pages.


Valid HTML 4.01!